{"data":{"norad_id":57145,"intl_designator":"2023-090AW","name":"STARLINK-5768","alt_names":[],"object_type":"PAYLOAD","status":"ACTIVE","operator":null,"country":"US","launch_date":"2023-06-23","launch_site_code":"AFETR","launch_vehicle":null,"mission":null,"orbit_class":"UNKNOWN","rcs_meters":null,"size_class":null,"mass_kg":null,"dimensions":null,"purposes":["comms"],"wikipedia_slug":null,"has_3d_model":false,"image_url":null,"decayed_at":null,"tle_current":{"epoch":"2026-05-25T03:20:22.775136Z","epoch_age_seconds":62988,"freshness":"FRESH","line1":"1 57145U 23090AW  26145.13915249 -.00004313  00000+0 -14726-3 0  9993","line2":"2 57145  43.0018 191.7313 0000813 322.6630  37.4165 15.27592403162046","mean_motion":15.27592403,"eccentricity":8.13e-5,"inclination_deg":43.0018,"raan_deg":191.7313,"arg_perigee_deg":322.663,"mean_anomaly_deg":37.4165,"bstar":-0.00014726,"rev_number":16204,"period_min":94.265983332466,"perigee_km":482.45414583676,"apogee_km":483.56976865721,"semimajor_km":6861.148957247,"source":"CELESTRAK","updated_at":"2026-05-25T13:38:18.248611Z"}}}